When you browse on this site, cookies collect data to enhance your experience and personalize the content and advertising you see.
Visit our Privacy Policy to learn more. By continuing to use the site, you agree to this use of cookies and data.
  • în România
  • Lista ţărilor
  • Pe 7 zile
  • Temperatura apei
  • Meteo pe hartă
  • Widget-uri
  • user-avatar
    Intrare

    Meteo pe oră la Barra

    Astăzi, 21 August, Miercuri

    Timp Temperatura Precipitaţii Vânt Presiune Umiditate
    00:00 +18°C° 0.1 mm 4 m/s 754 mmHg 86%
    01:00 +18°C° 0.1 mm 4 m/s 754 mmHg 86%
    02:00 +17°C° 0 mm 4 m/s 753 mmHg 86%
    03:00 +17°C° 0 mm 4 m/s 753 mmHg 86%
    04:00 +15°C° 0 mm 4 m/s 753 mmHg 88%
    05:00 +15°C° 0 mm 4 m/s 753 mmHg 88%
    06:00 +14°C° 0 mm 4 m/s 753 mmHg 87%
    07:00 +14°C° 0 mm 4 m/s 754 mmHg 87%
    08:00 +17°C° 0 mm 4 m/s 754 mmHg 74%
    09:00 +19°C° 0 mm 4 m/s 754 mmHg 61%
    10:00 +21°C° 0 mm 5 m/s 754 mmHg 48%
    11:00 +22°C° 0 mm 5 m/s 754 mmHg 48%
    12:00 +22°C° 0 mm 5 m/s 753 mmHg 48%
    13:00 +23°C° 0 mm 5 m/s 752 mmHg 48%
    14:00 +22°C° 0 mm 4 m/s 752 mmHg 52%
    15:00 +22°C° 0 mm 4 m/s 752 mmHg 56%
    16:00 +22°C° 0 mm 4 m/s 751 mmHg 60%
    17:00 +20°C° 0 mm 3 m/s 752 mmHg 69%
    18:00 +18°C° 0 mm 3 m/s 752 mmHg 78%
    19:00 +17°C° 0 mm 2 m/s 753 mmHg 87%
    20:00 +16°C° 0 mm 2 m/s 753 mmHg 88%
    21:00 +16°C° 0 mm 2 m/s 753 mmHg 89%
    22:00 +16°C° 0 mm 2 m/s 754 mmHg 91%
    23:00 +16°C° 0 mm 2 m/s 753 mmHg 88%

    Mâine, 22 August, Joi

    Timp Temperatura Precipitaţii Vânt Presiune Umiditate
    00:00 +17°C° 0 mm 2 m/s 753 mmHg 86%
    01:00 +17°C° 0 mm 2 m/s 753 mmHg 84%
    02:00 +16°C° 0 mm 2 m/s 753 mmHg 86%
    03:00 +16°C° 0 mm 2 m/s 752 mmHg 88%
    04:00 +15°C° 0 mm 2 m/s 752 mmHg 90%
    05:00 +15°C° 0 mm 2 m/s 753 mmHg 90%
    06:00 +14°C° 0 mm 2 m/s 753 mmHg 90%
    07:00 +13°C° 0 mm 3 m/s 753 mmHg 91%
    08:00 +17°C° 0 mm 3 m/s 753 mmHg 76%
    09:00 +19°C° 0 mm 3 m/s 754 mmHg 62%
    10:00 +22°C° 0 mm 3 m/s 754 mmHg 47%
    11:00 +24°C° 0 mm 3 m/s 753 mmHg 42%
    12:00 +23°C° 0 mm 4 m/s 752 mmHg 37%
    13:00 +25°C° 0 mm 4 m/s 751 mmHg 33%
    14:00 +23°C° 0 mm 4 m/s 751 mmHg 35%
    15:00 +24°C° 0 mm 3 m/s 751 mmHg 37%
    16:00 +22°C° 0 mm 3 m/s 751 mmHg 39%
    17:00 +20°C° 0 mm 2 m/s 751 mmHg 46%
    18:00 +19°C° 0 mm 1 m/s 751 mmHg 54%
    19:00 +15°C° 0 mm 0 m/s 752 mmHg 61%
    20:00 +15°C° 0 mm 1 m/s 752 mmHg 64%
    21:00 +15°C° 0 mm 1 m/s 752 mmHg 66%
    22:00 +14°C° 0 mm 1 m/s 753 mmHg 68%
    23:00 +14°C° 0 mm 1 m/s 752 mmHg 69%

    Poimâine, 23 August, Vineri

    Timp Temperatura Precipitaţii Vânt Presiune Umiditate
    00:00 +14°C° 0 mm 2 m/s 752 mmHg 69%
    01:00 +13°C° 0 mm 2 m/s 752 mmHg 70%
    02:00 +13°C° 0 mm 2 m/s 752 mmHg 70%
    03:00 +13°C° 0 mm 2 m/s 752 mmHg 71%
    04:00 +13°C° 0 mm 2 m/s 752 mmHg 71%
    05:00 +13°C° 0 mm 2 m/s 752 mmHg 71%
    06:00 +13°C° 0 mm 2 m/s 752 mmHg 71%
    07:00 +13°C° 0 mm 2 m/s 753 mmHg 71%
    08:00 +16°C° 0 mm 2 m/s 753 mmHg 64%
    09:00 +19°C° 0 mm 2 m/s 753 mmHg 57%
    10:00 +23°C° 0 mm 2 m/s 754 mmHg 49%
    11:00 +22°C° 0 mm 3 m/s 753 mmHg 50%
    12:00 +23°C° 0 mm 4 m/s 752 mmHg 50%
    13:00 +23°C° 0 mm 4 m/s 751 mmHg 50%
    14:00 +23°C° 0 mm 4 m/s 751 mmHg 51%
    15:00 +22°C° 0 mm 4 m/s 751 mmHg 53%
    16:00 +22°C° 0 mm 4 m/s 751 mmHg 54%
    17:00 +20°C° 0 mm 3 m/s 752 mmHg 62%
    18:00 +18°C° 0 mm 3 m/s 752 mmHg 70%
    19:00 +16°C° 0 mm 2 m/s 753 mmHg 78%
    20:00 +16°C° 0 mm 2 m/s 753 mmHg 80%
    21:00 +15°C° 0 mm 2 m/s 753 mmHg 82%
    22:00 +15°C° 0 mm 2 m/s 754 mmHg 84%
    23:00 +15°C° 0 mm 2 m/s 753 mmHg 81%

    24 August, Sâmbătă

    Timp Temperatura Precipitaţii Vânt Presiune Umiditate
    00:00 +16°C° 0 mm 2 m/s 753 mmHg 78%
    01:00 +17°C° 0 mm 2 m/s 753 mmHg 75%
    02:00 +17°C° 0 mm 2 m/s 753 mmHg 77%
    03:00 +16°C° 0 mm 2 m/s 753 mmHg 78%
    04:00 +16°C° 0 mm 2 m/s 752 mmHg 80%
    05:00 +17°C° 0 mm 2 m/s 753 mmHg 79%
    06:00 +17°C° 0 mm 2 m/s 753 mmHg 77%
    07:00 +17°C° 0 mm 2 m/s 753 mmHg 76%
    08:00 +19°C° 0 mm 2 m/s 753 mmHg 71%
    09:00 +21°C° 0 mm 2 m/s 753 mmHg 65%
    10:00 +24°C° 0 mm 2 m/s 754 mmHg 60%
    11:00 +24°C° 0 mm 3 m/s 753 mmHg 59%
    12:00 +25°C° 0 mm 3 m/s 752 mmHg 57%
    13:00 +25°C° 0 mm 3 m/s 751 mmHg 56%
    14:00 +25°C° 0 mm 3 m/s 751 mmHg 58%
    15:00 +24°C° 0 mm 3 m/s 751 mmHg 60%
    16:00 +24°C° 0 mm 3 m/s 750 mmHg 63%
    17:00 +21°C° 0.1 mm 3 m/s 751 mmHg 73%
    18:00 +20°C° 0.1 mm 2 m/s 751 mmHg 82%
    19:00 +18°C° 0.1 mm 2 m/s 752 mmHg 92%
    20:00 +18°C° 0.1 mm 2 m/s 752 mmHg 93%
    21:00 +18°C° 0.1 mm 3 m/s 752 mmHg 93%
    22:00 +18°C° 0.1 mm 3 m/s 752 mmHg 94%
    23:00 +18°C° 0.2 mm 3 m/s 752 mmHg 93%

    25 August, Duminică

    Timp Temperatura Precipitaţii Vânt Presiune Umiditate
    00:00 +18°C° 0.2 mm 3 m/s 752 mmHg 93%
    01:00 +19°C° 0.2 mm 3 m/s 752 mmHg 92%
    02:00 +18°C° 0.3 mm 3 m/s 751 mmHg 92%
    03:00 +18°C° 0.3 mm 3 m/s 751 mmHg 92%
    04:00 +18°C° 0.3 mm 3 m/s 751 mmHg 92%
    05:00 +18°C° 0.2 mm 3 m/s 751 mmHg 92%
    06:00 +18°C° 0.2 mm 3 m/s 752 mmHg 92%
    07:00 +18°C° 0.2 mm 3 m/s 752 mmHg 92%
    08:00 +19°C° 0.3 mm 3 m/s 752 mmHg 89%
    09:00 +20°C° 0.3 mm 3 m/s 752 mmHg 86%
    10:00 +21°C° 0.3 mm 4 m/s 753 mmHg 82%
    11:00 +22°C° 0.1 mm 4 m/s 752 mmHg 76%
    12:00 +23°C° 0.1 mm 4 m/s 751 mmHg 69%
    13:00 +25°C° 0.1 mm 4 m/s 750 mmHg 62%
    14:00 +25°C° 0 mm 3 m/s 750 mmHg 62%
    15:00 +24°C° 0 mm 3 m/s 749 mmHg 61%
    16:00 +24°C° 0 mm 3 m/s 749 mmHg 60%
    17:00 +22°C° 0 mm 3 m/s 749 mmHg 68%
    18:00 +20°C° 0 mm 2 m/s 750 mmHg 76%
    19:00 +18°C° 0 mm 2 m/s 750 mmHg 85%
    20:00 +18°C° 0 mm 2 m/s 751 mmHg 87%
    21:00 +17°C° 0 mm 2 m/s 751 mmHg 89%
    22:00 +17°C° 0 mm 2 m/s 752 mmHg 91%
    23:00 +17°C° 0 mm 2 m/s 751 mmHg 90%

    26 August, Luni

    Timp Temperatura Precipitaţii Vânt Presiune Umiditate
    00:00 +18°C° 0 mm 2 m/s 751 mmHg 89%
    01:00 +18°C° 0 mm 2 m/s 751 mmHg 88%
    02:00 +18°C° 0.1 mm 2 m/s 751 mmHg 90%
    03:00 +17°C° 0.1 mm 2 m/s 751 mmHg 91%
    04:00 +17°C° 0.1 mm 2 m/s 751 mmHg 93%
    05:00 +17°C° 0.1 mm 2 m/s 751 mmHg 93%
    06:00 +17°C° 0.1 mm 3 m/s 752 mmHg 93%
    07:00 +17°C° 0.1 mm 3 m/s 752 mmHg 93%
    08:00 +19°C° 0.2 mm 3 m/s 752 mmHg 87%
    09:00 +20°C° 0.2 mm 4 m/s 752 mmHg 80%
    10:00 +22°C° 0.2 mm 4 m/s 752 mmHg 74%
    11:00 +23°C° 0.1 mm 4 m/s 752 mmHg 68%
    12:00 +23°C° 0.1 mm 4 m/s 751 mmHg 62%
    13:00 +25°C° 0.1 mm 5 m/s 750 mmHg 56%
    14:00 +25°C° 0 mm 4 m/s 750 mmHg 57%
    15:00 +25°C° 0 mm 4 m/s 750 mmHg 58%
    16:00 +23°C° 0 mm 4 m/s 749 mmHg 59%
    17:00 +22°C° 0 mm 4 m/s 750 mmHg 68%
    18:00 +20°C° 0 mm 3 m/s 751 mmHg 77%
    19:00 +18°C° 0 mm 3 m/s 751 mmHg 86%
    20:00 +18°C° 0 mm 3 m/s 752 mmHg 87%
    21:00 +18°C° 0 mm 3 m/s 752 mmHg 87%
    22:00 +17°C° 0 mm 3 m/s 752 mmHg 88%
    23:00 +17°C° 0 mm 3 m/s 752 mmHg 88%
    Arată mai mult